| time (UTC) | temp F | wind direction | speed MPH | gust MPH | rain 1hr in | rain 24hr in | rain mn in | humidity % | barometer mb |
| 20260509164516 | 51 | 0 | 7.0 | 16.0 | 0.00 | 0.00 | 0.00 | 30 | 1019.7 |
| 20260509163516 | 51 | 68 | 8.0 | 18.0 | 0.00 | 0.00 | 0.00 | 31 | 1019.7 |
| 20260509162516 | 50 | 0 | 6.0 | 13.0 | 0.00 | 0.00 | 0.00 | 30 | 1019.5 |
| 20260509161516 | 50 | 0 | 5.0 | 15.0 | 0.00 | 0.00 | 0.00 | 31 | 1019.2 |
| 20260509160516 | 49 | 0 | 9.0 | 19.0 | 0.00 | 0.00 | 0.00 | 32 | 1018.5 |
| 20260509155516 | 49 | 0 | 9.0 | 18.0 | 0.00 | 0.00 | 0.00 | 33 | 1018.6 |
| 20260509154516 | 49 | 0 | 11.0 | 24.0 | 0.00 | 0.00 | 0.00 | 31 | 1018.3 |
| 20260509153515 | 48 | 0 | 9.0 | 19.0 | 0.00 | 0.00 | 0.00 | 31 | 1018.3 |
| 20260509152515 | 49 | 0 | 6.0 | 16.0 | 0.00 | 0.00 | 0.00 | 31 | 1018.7 |
| 20260509151515 | 49 | 0 | 4.0 | 11.0 | 0.00 | 0.00 | 0.00 | 34 | 1019.7 |
| 20260509150515 | 48 | 0 | 5.0 | 14.0 | 0.00 | 0.00 | 0.00 | 35 | 1018.9 |
| 20260509145516 | 47 | 0 | 3.0 | 10.0 | 0.00 | 0.00 | 0.00 | 37 | 1019.1 |
| 20260509144515 | 47 | 0 | 5.0 | 13.0 | 0.00 | 0.00 | 0.00 | 39 | 1019.2 |
| 20260509143515 | 46 | 0 | 5.0 | 14.0 | 0.00 | 0.00 | 0.00 | 40 | 1019.1 |
| 20260509142515 | 45 | 45 | 10.0 | 22.0 | 0.00 | 0.00 | 0.00 | 39 | 1018.4 |
| 20260509141516 | 45 | 45 | 7.0 | 16.0 | 0.00 | 0.00 | 0.00 | 39 | 1019.2 |
| 20260509140516 | 44 | 45 | 5.0 | 13.0 | 0.00 | 0.00 | 0.00 | 39 | 1018.4 |
| 20260509135535 | 44 | 68 | 5.0 | 13.0 | 0.00 | 0.00 | 0.00 | 39 | 1018.5 |
| 20260509134516 | 43 | 45 | 9.0 | 17.0 | 0.00 | 0.00 | 0.00 | 41 | 1018.5 |
| 20260509133516 | 42 | 45 | 6.0 | 11.0 | 0.00 | 0.00 | 0.00 | 43 | 1018.4 |
| 20260509132515 | 42 | 68 | 5.0 | 12.0 | 0.00 | 0.00 | 0.00 | 44 | 1018.4 |
| 20260509131515 | 42 | 68 | 3.0 | 7.0 | 0.00 | 0.00 | 0.00 | 44 | 1018.2 |
| 20260509130515 | 42 | 45 | 3.0 | 10.0 | 0.00 | 0.00 | 0.00 | 45 | 1018.1 |
| 20260509125515 | 42 | 0 | 4.0 | 10.0 | 0.00 | 0.00 | 0.00 | 45 | 1018.0 |
| 20260509124517 | 42 | 0 | 2.0 | 8.0 | 0.00 | 0.00 | 0.00 | 48 | 1018.5 |
| 20260509123517 | 42 | 45 | 3.0 | 6.0 | 0.00 | 0.00 | 0.00 | 48 | 1019.0 |
| 20260509122517 | 42 | 23 | 4.0 | 10.0 | 0.00 | 0.00 | 0.00 | 49 | 1018.9 |
| 20260509121517 | 42 | 113 | 1.0 | 4.0 | 0.00 | 0.00 | 0.00 | 50 | 1019.5 |
| 20260509120517 | 42 | 23 | 2.0 | 4.0 | 0.00 | 0.00 | 0.00 | 49 | 1020.0 |
| 20260509115537 | 42 | 45 | 3.0 | 5.0 | 0.00 | 0.00 | 0.00 | 50 | 1020.2 |
| 20260509114517 | 42 | 68 | 2.0 | 7.0 | 0.00 | 0.00 | 0.00 | 50 | 1020.2 |
| 20260509113517 | 42 | 0.0 | 2.0 | 0.00 | 0.00 | 0.00 | 50 | 1020.3 | |
| 20260509112517 | 42 | 90 | 5.0 | 11.0 | 0.00 | 0.00 | 0.00 | 50 | 1020.1 |
| 20260509111517 | 43 | 45 | 4.0 | 15.0 | 0.00 | 0.00 | 0.00 | 49 | 1020.8 |
| 20260509110517 | 43 | 0 | 4.0 | 10.0 | 0.00 | 0.00 | 0.00 | 49 | 1020.8 |
| 20260509105517 | 43 | 0 | 4.0 | 8.0 | 0.00 | 0.00 | 0.00 | 49 | 1020.8 |
| 20260509104537 | 43 | 45 | 6.0 | 14.0 | 0.00 | 0.00 | 0.00 | 48 | 1020.9 |
| 20260509103517 | 43 | 0 | 6.0 | 11.0 | 0.00 | 0.00 | 0.00 | 48 | 1020.6 |
| 20260509102517 | 43 | 0 | 7.0 | 16.0 | 0.00 | 0.00 | 0.00 | 48 | 1020.4 |
| 20260509101517 | 44 | 0 | 5.0 | 13.0 | 0.00 | 0.00 | 0.00 | 48 | 1019.9 |
| 20260509100517 | 44 | 0 | 5.0 | 13.0 | 0.00 | 0.00 | 0.00 | 48 | 1019.8 |
| 20260509095516 | 44 | 0 | 7.0 | 16.0 | 0.00 | 0.00 | 0.00 | 48 | 1020.0 |
| 20260509094517 | 44 | 0 | 7.0 | 17.0 | 0.00 | 0.00 | 0.00 | 48 | 1020.2 |
| 20260509093516 | 44 | 0 | 7.0 | 15.0 | 0.00 | 0.00 | 0.00 | 48 | 1020.1 |
| 20260509092517 | 44 | 0 | 7.0 | 14.0 | 0.00 | 0.00 | 0.00 | 48 | 1020.1 |
| 20260509091517 | 44 | 0 | 7.0 | 15.0 | 0.00 | 0.00 | 0.00 | 47 | 1019.5 |
| 20260509090537 | 45 | 0 | 7.0 | 17.0 | 0.00 | 0.00 | 0.00 | 45 | 1020.3 |
| 20260509085517 | 45 | 0 | 8.0 | 15.0 | 0.00 | 0.00 | 0.00 | 42 | 1020.0 |
| 20260509084516 | 45 | 0 | 6.0 | 16.0 | 0.00 | 0.00 | 0.00 | 42 | 1019.8 |
| 20260509083517 | 45 | 0 | 6.0 | 14.0 | 0.00 | 0.00 | 0.00 | 43 | 1019.8 |
| 20260509082517 | 45 | 0 | 6.0 | 13.0 | 0.00 | 0.00 | 0.00 | 44 | 1019.8 |
| 20260509081516 | 45 | 0 | 8.0 | 17.0 | 0.00 | 0.00 | 0.00 | 45 | 1020.0 |
| 20260509080536 | 46 | 0 | 7.0 | 17.0 | 0.00 | 0.00 | 0.00 | 44 | 1020.4 |
| 20260509075517 | 46 | 0 | 8.0 | 18.0 | 0.00 | 0.00 | 0.00 | 44 | 1020.6 |
| 20260509074517 | 46 | 0 | 7.0 | 23.0 | 0.00 | 0.00 | 0.00 | 43 | 1019.4 |
| 20260509073537 | 46 | 0 | 7.0 | 15.0 | 0.00 | 0.00 | 0.00 | 43 | 1019.7 |
| 20260509072516 | 46 | 0 | 6.0 | 18.0 | 0.00 | 0.00 | 0.00 | 43 | 1019.9 |
| 20260509071516 | 46 | 23 | 5.0 | 12.0 | 0.00 | 0.00 | 0.00 | 42 | 1019.9 |
| 20260509070516 | 46 | 0 | 2.0 | 7.0 | 0.00 | 0.00 | 0.00 | 42 | 1019.9 |
| 20260509065516 | 46 | 0 | 3.0 | 14.0 | 0.00 | 0.00 | 0.00 | 42 | 1019.9 |
| 20260509064516 | 45 | 293 | 3.0 | 8.0 | 0.00 | 0.00 | 0.00 | 44 | 1019.3 |
| 20260509063536 | 46 | 338 | 2.0 | 8.0 | 0.00 | 0.00 | 0.00 | 43 | 1019.3 |
| 20260509062517 | 47 | 45 | 5.0 | 11.0 | 0.00 | 0.00 | 0.00 | 40 | 1019.7 |
| 20260509061516 | 46 | 68 | 4.0 | 9.0 | 0.00 | 0.00 | 0.00 | 43 | 1019.2 |
| 20260509060516 | 45 | 0.0 | 1.0 | 0.00 | 0.00 | 0.00 | 51 | 1019.2 | |
| 20260509055537 | 44 | 270 | 1.0 | 4.0 | 0.00 | 0.00 | 0.00 | 56 | 1018.8 |
| 20260509054537 | 43 | 270 | 2.0 | 3.0 | 0.00 | 0.00 | 0.00 | 62 | 1018.4 |
| 20260509053537 | 43 | 270 | 1.0 | 2.0 | 0.00 | 0.00 | 0.00 | 69 | 1018.6 |
| 20260509052517 | 43 | 270 | 1.0 | 2.0 | 0.00 | 0.00 | 0.00 | 70 | 1018.9 |
| 20260509051517 | 43 | 0.0 | 2.0 | 0.00 | 0.00 | 0.00 | 70 | 1019.0 | |
| 20260509050516 | 43 | 270 | 2.0 | 3.0 | 0.00 | 0.00 | 0.00 | 69 | 1019.1 |
| 20260509045536 | 43 | 270 | 1.0 | 3.0 | 0.00 | 0.00 | 0.00 | 70 | 1019.3 |
| 20260509044517 | 43 | 0.0 | 0.0 | 0.00 | 0.00 | 0.00 | 70 | 1018.8 | |
| 20260509043537 | 43 | 270 | 1.0 | 2.0 | 0.00 | 0.00 | 0.00 | 70 | 1019.1 |
| 20260509042517 | 44 | 270 | 1.0 | 3.0 | 0.00 | 0.00 | 0.00 | 69 | 1019.3 |
| 20260509041536 | 44 | 270 | 1.0 | 4.0 | 0.00 | 0.00 | 0.00 | 69 | 1019.4 |
| 20260509040517 | 44 | 270 | 3.0 | 4.0 | 0.00 | 0.00 | 0.00 | 68 | 1019.5 |
| 20260509035536 | 44 | 0.0 | 2.0 | 0.00 | 0.00 | 0.00 | 68 | 1019.8 | |
| 20260509034516 | 44 | 270 | 2.0 | 3.0 | 0.00 | 0.00 | 0.00 | 68 | 1019.2 |
| 20260509033516 | 45 | 270 | 2.0 | 3.0 | 0.00 | 0.00 | 0.00 | 67 | 1019.2 |
| 20260509032516 | 44 | 270 | 1.0 | 3.0 | 0.00 | 0.00 | 0.00 | 67 | 1019.4 |
| 20260509031516 | 45 | 270 | 3.0 | 6.0 | 0.00 | 0.00 | 0.00 | 67 | 1019.3 |
| 20260509030516 | 45 | 0.0 | 0.0 | 0.00 | 0.00 | 0.00 | 67 | 1019.7 | |
| 20260509025516 | 45 | 0.0 | 0.0 | 0.00 | 0.00 | 0.00 | 67 | 1019.6 | |
| 20260509024517 | 45 | 0.0 | 0.0 | 0.00 | 0.00 | 0.00 | 66 | 1018.8 | |
| 20260509023536 | 45 | 0.0 | 1.0 | 0.00 | 0.00 | 0.00 | 66 | 1018.8 | |
| 20260509022516 | 46 | 0.0 | 0.0 | 0.00 | 0.00 | 0.00 | 66 | 1018.6 | |
| 20260509021516 | 46 | 0.0 | 0.0 | 0.00 | 0.00 | 0.00 | 66 | 1018.1 | |
| 20260509020516 | 46 | 0.0 | 0.0 | 0.00 | 0.00 | 0.00 | 65 | 1018.0 | |
| 20260509015516 | 46 | 0.0 | 3.0 | 0.00 | 0.00 | 0.00 | 65 | 1018.0 | |
| 20260509014516 | 47 | 225 | 1.0 | 3.0 | 0.00 | 0.00 | 0.00 | 64 | 1018.5 |
| 20260509013516 | 47 | 225 | 1.0 | 5.0 | 0.00 | 0.00 | 0.00 | 63 | 1018.4 |
| 20260509012516 | 48 | 203 | 1.0 | 4.0 | 0.00 | 0.00 | 0.00 | 62 | 1018.9 |
| 20260509011536 | 49 | 0.0 | 3.0 | 0.00 | 0.00 | 0.00 | 62 | 1018.8 | |
| 20260509010516 | 49 | 225 | 1.0 | 4.0 | 0.00 | 0.00 | 0.00 | 61 | 1018.7 |
| 20260509005516 | 49 | 225 | 2.0 | 4.0 | 0.00 | 0.00 | 0.00 | 61 | 1018.7 |
| 20260509004516 | 49 | 225 | 2.0 | 4.0 | 0.00 | 0.00 | 0.00 | 59 | 1018.6 |
| 20260509003516 | 50 | 270 | 1.0 | 5.0 | 0.00 | 0.00 | 0.00 | 58 | 1018.5 |
| 20260509002516 | 50 | 270 | 1.0 | 6.0 | 0.00 | 0.00 | 0.00 | 57 | 1018.6 |
| 20260509001516 | 52 | 248 | 6.0 | 13.0 | 0.00 | 0.00 | 0.00 | 53 | 1018.9 |
| 20260509000516 | 52 | 270 | 2.0 | 6.0 | 0.00 | 0.00 | 0.00 | 55 | 1018.9 |
| 20260508235516 | 53 | 248 | 2.0 | 6.0 | 0.00 | 0.00 | 0.00 | 52 | 1019.8 |
| 20260508234516 | 56 | 248 | 2.0 | 9.0 | 0.00 | 0.00 | 0.00 | 48 | 1020.4 |
| 20260508233516 | 57 | 203 | 1.0 | 5.0 | 0.00 | 0.00 | 0.00 | 49 | 1021.0 |
| 20260508232516 | 57 | 180 | 1.0 | 3.0 | 0.00 | 0.00 | 0.00 | 49 | 1021.2 |
| 20260508231516 | 56 | 203 | 1.0 | 6.0 | 0.00 | 0.00 | 0.00 | 51 | 1021.2 |
| 20260508230556 | 55 | 203 | 1.0 | 4.0 | 0.00 | 0.00 | 0.00 | 52 | 1020.6 |
| 20260508225516 | 58 | 180 | 1.0 | 4.0 | 0.00 | 0.00 | 0.00 | 49 | 1021.4 |
| 20260508224535 | 57 | 203 | 1.0 | 5.0 | 0.00 | 0.00 | 0.00 | 51 | 1021.3 |
| 20260508223515 | 57 | 203 | 2.0 | 8.0 | 0.00 | 0.00 | 0.00 | 49 | 1021.4 |
| 20260508222515 | 56 | 203 | 2.0 | 8.0 | 0.00 | 0.00 | 0.00 | 52 | 1021.4 |
| 20260508221516 | 57 | 158 | 2.0 | 7.0 | 0.00 | 0.00 | 0.00 | 51 | 1021.7 |
| 20260508220515 | 56 | 158 | 2.0 | 8.0 | 0.00 | 0.00 | 0.00 | 54 | 1021.0 |
| 20260508215516 | 56 | 225 | 2.0 | 6.0 | 0.00 | 0.00 | 0.00 | 54 | 1021.0 |
| 20260508214535 | 55 | 203 | 1.0 | 6.0 | 0.00 | 0.00 | 0.00 | 52 | 1020.5 |
| 20260508213516 | 56 | 180 | 2.0 | 6.0 | 0.00 | 0.00 | 0.00 | 53 | 1021.9 |
| 20260508212515 | 56 | 203 | 3.0 | 10.0 | 0.00 | 0.00 | 0.00 | 53 | 1021.4 |
| 20260508211515 | 55 | 203 | 3.0 | 9.0 | 0.00 | 0.00 | 0.00 | 53 | 1021.6 |
| 20260508210515 | 55 | 225 | 2.0 | 6.0 | 0.00 | 0.00 | 0.00 | 53 | 1021.8 |
| 20260508205515 | 54 | 203 | 2.0 | 8.0 | 0.00 | 0.01 | 0.00 | 54 | 1021.8 |
| 20260508204515 | 53 | 203 | 2.0 | 10.0 | 0.00 | 0.01 | 0.00 | 57 | 1021.4 |
| 20260508203515 | 54 | 203 | 4.0 | 10.0 | 0.00 | 0.01 | 0.00 | 52 | 1022.1 |
| 20260508202515 | 53 | 203 | 2.0 | 8.0 | 0.00 | 0.02 | 0.00 | 54 | 1021.8 |
| 20260508201517 | 54 | 0 | 5.0 | 14.0 | 0.00 | 0.03 | 0.00 | 43 | 1021.9 |
| 20260508200517 | 54 | 0 | 5.0 | 14.0 | 0.00 | 0.04 | 0.00 | 32 | 1022.1 |
| 20260508195517 | 54 | 0 | 4.0 | 12.0 | 0.00 | 0.06 | 0.00 | 36 | 1022.1 |
| 20260508194517 | 54 | 0 | 4.0 | 11.0 | 0.00 | 0.08 | 0.00 | 37 | 1022.1 |
| 20260508193517 | 54 | 68 | 8.0 | 15.0 | 0.00 | 0.11 | 0.00 | 32 | 1021.6 |
| 20260508192517 | 53 | 0 | 6.0 | 13.0 | 0.00 | 0.14 | 0.00 | 36 | 1021.6 |
| 20260508191517 | 51 | 0 | 8.0 | 16.0 | 0.00 | 0.16 | 0.00 | 34 | 1021.0 |
| 20260508190517 | 51 | 0 | 13.0 | 21.0 | 0.00 | 0.19 | 0.00 | 33 | 1021.1 |
| 20260508185517 | 52 | 0 | 4.0 | 11.0 | 0.00 | 0.23 | 0.00 | 35 | 1021.2 |
| 20260508184517 | 51 | 68 | 7.0 | 16.0 | 0.00 | 0.25 | 0.00 | 35 | 1020.4 |
| 20260508183517 | 50 | 0 | 8.0 | 17.0 | 0.00 | 0.27 | 0.00 | 34 | 1021.3 |
| 20260508182517 | 50 | 68 | 6.0 | 15.0 | 0.00 | 0.30 | 0.00 | 34 | 1021.3 |
| 20260508181517 | 49 | 0 | 7.0 | 16.0 | 0.00 | 0.33 | 0.00 | 35 | 1020.8 |
| 20260508180517 | 50 | 0 | 7.0 | 16.0 | 0.00 | 0.35 | 0.00 | 34 | 1022.1 |
| 20260508175517 | 50 | 45 | 4.0 | 12.0 | 0.00 | 0.35 | 0.00 | 38 | 1022.4 |
| 20260508174517 | 49 | 68 | 7.0 | 16.0 | 0.00 | 0.35 | 0.00 | 37 | 1021.7 |
| 20260508173517 | 49 | 23 | 3.0 | 12.0 | 0.00 | 0.36 | 0.00 | 40 | 1021.8 |
| 20260508172517 | 49 | 68 | 7.0 | 16.0 | 0.00 | 0.36 | 0.00 | 40 | 1021.9 |
| 20260508171517 | 48 | 0 | 9.0 | 18.0 | 0.00 | 0.36 | 0.00 | 39 | 1021.9 |
| 20260508170557 | 49 | 0 | 6.0 | 21.0 | 0.00 | 0.36 | 0.00 | 43 | 1022.1 |
| 20260508165517 | 48 | 90 | 11.0 | 23.0 | 0.00 | 0.36 | 0.00 | 42 | 1022.1 |